Regional Weather Roundup
Issued by NWS

Home | Current Version | Previous Version | Graphics & Text | Print | Product List | Glossary On
Versions: 1 2 3 4 5 6 7 8 9 10 11 12 13 14 15 16 17 18 19 20 21 22 23 24 25 26 27 28 29 30 31 32 33 34 35 36 37 38 39 40 41 42 43 44 45 46 47 48 49 50
385
ASUS44 KLIX 311901
RWRLA
LOUISIANA WEATHER ROUNDUP
NATIONAL WEATHER SERVICE NEW ORLEANS LA
100 PM CST SAT JAN 31 2015

NOTE: "FAIR" INDICATES FEW OR NO CLOUDS BELOW 12,000 FEET WITH NO
      SIGNIFICANT WEATHER AND/OR OBSTRUCTIONS TO VISIBILITY.
      SKY/WX - SKY CONDITION AND SIGNIFICANT WEATHER.
      TMP - AIR TEMPERATURE.    DP   - DEWPOINT TEMPERATURE.
      RH  - RELATIVE HUMIDITY.  PRES - PRESSURE.
      HX  - HEAT INDEX.         WCI  - WIND CHILL INDEX.

*  THESE STATIONS ARE NOT NWS OR FAA STATIONS AND ARE NOT UNDER
   NWS QUALITY CONTROL.

LAZ040-048-061>063-065-066-069-312000-
SOUTHEAST LOUISIANA

CITY           SKY/WX    TMP DP  RH WIND       PRES   REMARKS
N.O. AUDUBON   NOT AVBL
N.O. INTL ARPT PTSUNNY   61  46  57 E9        30.24F
N.O. LAKEFRONT MOSUNNY   60  46  59 E13       30.26F
N.O. DOWNTOWN* NOT AVBL
SLIDELL        MOSUNNY   62  45  53 SE9       30.25F
BATON ROUGE    PTSUNNY   61  42  49 SE12      30.23F
BOOTHVILLE     PTSUNNY   65  51  60 E12       30.24F
BELLE CHASSE   PTSUNNY   62  47  57 E16       30.23F
BOGALUSA*        N/A     60  28  29 SE5       30.28F
GALLIANO*      NOT AVBL
NEW ROADS*     NOT AVBL
GONZALES*      NOT AVBL
HAMMOND*       NOT AVBL
HOUMA*         SUNNY     64  50  59 NE17      30.22F
PORT FOURCHON* CLEAR     66  54  63 E13G20    30.24F

$$

LAZ041-044-053-054-312000-
SOUTHWEST LOUISIANA

CITY           SKY/WX    TMP DP  RH WIND       PRES   REMARKS
LAKE CHARLES   PTSUNNY   60  46  59 E10       30.18F
LAFAYETTE      CLOUDY    62  46  55 E8        30.21F
PATTERSON      CLOUDY    63  46  55 E9        30.22F
SALT POINT       N/A     64  49  57 E7        30.18F
NEW IBERIA     CLOUDY    63  47  55 E14       30.20F
CHENAULT AIRPK SUNNY     61  46  59 E8G16     30.19F

$$

LAZ027-028-312000-
CENTRAL LOUISIANA

CITY           SKY/WX    TMP DP  RH WIND       PRES   REMARKS
FORT POLK      MOSUNNY   58  40  52 E8        30.18F
ALEXANDRIA INT PTSUNNY   57  37  47 SE9       30.21F
ALEXANDRIA     PTSUNNY   59  34  39 SE8       30.22F

$$

LAZ001-002-312000-
NORTHWEST LOUISIANA

CITY           SKY/WX    TMP DP  RH WIND       PRES   REMARKS
SHREVEPORT     CLOUDY    55  32  41 SE9       30.19F
BARKSDALE AFB  PTSUNNY   55  32  41 S7        30.19F
DTN SHREVEPORT PTSUNNY   53  31  42 SE10      30.20F

$$

LAZ014-016-312000-
NORTHEAST LOUISIANA

CITY           SKY/WX    TMP DP  RH WIND       PRES   REMARKS
MONROE         CLOUDY    55  31  39 S5        30.25F
TALLULAH       PTSUNNY   57  26  30 SE9       30.24F

$$




USA.gov is the U.S. government's official web portal to all federal, state and local government web resources and services.